Weather History for EGUL - January, 2013

Change the Weather History Date:

Sunday, January 13, 2013

  Actual Average (EGSC) Record (EGSC)
Temperature  
Mean Temperature 30 °F -  
Max Temperature 35 °F 45 °F 55 °F (2011)
Min Temperature 25 °F 37 °F 26 °F (2001)
Degree Days  
Heating Degree Days 35    
Moisture  
Dew Point 27 °F    
Average Humidity 86    
Maximum Humidity 94    
Minimum Humidity 73    
Precipitation  
Precipitation 0.00 in - - ()
Sea Level Pressure  
Sea Level Pressure 30.10 in    
Wind  
Wind Speed 4 mph ()    
Max Wind Speed 10 mph    
Max Gust Speed -    
Visibility 6.2 miles    
Events      
Averages and records for this station are not official NWS values.
T = Trace of Precipitation, MM = Missing Value Source: Averaged Metar Reports

Daily Weather History Graph

Daily Weather History Graph

Search for Another Location

Airport or City:

Trip Planner

Search our weather history database for the weather conditions in past years. The results will help you decide how hot, cold, wet, or windy it might be!

Date:

Astronomy

Jan. 13, 2013 Rise Set
Actual Time 8:02 AM GMT 4:11 PM GMT
Civil Twilight 7:22 AM GMT 4:50 PM GMT
Nautical Twilight 6:39 AM GMT 5:33 PM GMT
Astronomical Twilight 5:58 AM GMT 6:14 PM GMT
Moon 8:30 AM GMT (1/13) 6:56 PM GMT (1/13)
Length of Visible Light 9h 28m
Length of Day
8h 08m
Waxing Crescent, 4% of the Moon is Illuminated
Jan 13
Waxing Crescent
Jan 18
First Quarter
Jan 27
Full
Feb 3
Last Quarter
Feb 10
New

Hourly Weather History & Observations

Time (GMT) Temp. Windchill Dew Point Humidity Pressure Visibility Wind Dir Wind Speed Gust Speed Precip Events Conditions
12:58 AM 30.7 °F 24.1 °F 26.1 °F 83% 30.03 in 6.2 mi ENE 6.9 mph - N/A   Clear
1:58 AM 32.7 °F 24.5 °F 26.8 °F 79% 30.04 in 6.2 mi East 10.4 mph - N/A   Overcast
2:58 AM 30.2 °F 24.3 °F 26.2 °F 85% 30.05 in 6.2 mi NE 5.8 mph - N/A   Scattered Clouds
3:58 AM 30.2 °F 24.3 °F 27.0 °F 88% 30.06 in 6.2 mi NNE 5.8 mph - N/A   Overcast
4:58 AM 28.2 °F 20.2 °F 26.1 °F 92% 30.07 in 6.2 mi North 8.1 mph - N/A   Clear
5:58 AM 30.0 °F 25.2 °F 27.7 °F 91% 30.09 in 6.2 mi NNE 4.6 mph - N/A   Overcast
6:25 AM 32.0 °F 27.5 °F 28.4 °F 87% 30.08 in 6.2 mi North 4.6 mph - N/A   Overcast
6:36 AM 32.0 °F 27.5 °F 28.4 °F 87% 30.08 in 6.2 mi North 4.6 mph - N/A   Overcast
7:12 AM 32.0 °F 27.5 °F 28.4 °F 87% 30.09 in 6.2 mi North 4.6 mph - N/A   Overcast
7:21 AM 32.0 °F 27.5 °F 28.4 °F 87% 30.09 in 6.2 mi North 4.6 mph - N/A   Overcast
7:29 AM 32.0 °F 27.5 °F 28.4 °F 87% 30.09 in 6.2 mi North 4.6 mph - N/A   Overcast
7:35 AM 32.0 °F 27.5 °F 28.4 °F 87% 30.09 in 6.2 mi North 4.6 mph - N/A   Overcast
7:58 AM 31.3 °F 27.9 °F 28.8 °F 90% 30.10 in 6.2 mi North 3.5 mph - 0.00 in   Overcast
8:58 AM 31.6 °F 26.0 °F 29.1 °F 90% 30.12 in 6.2 mi NE 5.8 mph - N/A   Overcast
9:58 AM 32.2 °F 28.9 °F 29.5 °F 90% 30.13 in 6.2 mi NE 3.5 mph - N/A   Overcast
10:58 AM 33.4 °F 30.4 °F 28.9 °F 84% 30.14 in 6.2 mi North 3.5 mph - N/A   Overcast
11:58 AM 34.7 °F 30.6 °F 28.0 °F 77% 30.12 in 6.2 mi North 4.6 mph - N/A   Overcast
12:58 PM 35.4 °F 31.5 °F 27.7 °F 73% 30.12 in 6.2 mi NE 4.6 mph - N/A   Overcast
1:58 PM 35.2 °F - 27.9 °F 74% 30.12 in 6.2 mi NE 2.3 mph - N/A   Overcast
2:58 PM 35.4 °F 32.6 °F 27.9 °F 74% 30.12 in 6.2 mi North 3.5 mph - N/A   Partly Cloudy
3:58 PM 33.3 °F 28.9 °F 27.3 °F 79% 30.14 in 6.2 mi North 4.6 mph - N/A   Clear
4:58 PM 29.5 °F 25.9 °F 25.5 °F 85% 30.14 in 6.2 mi NNE 3.5 mph - N/A   Clear
5:58 PM 27.3 °F - 25.0 °F 91% 30.15 in 6.2 mi North 1.2 mph - N/A   Clear
6:58 PM 26.1 °F - 24.4 °F 94% 30.14 in 6.2 mi NE 2.3 mph - N/A   Mostly Cloudy
7:58 PM 25.9 °F - 23.7 °F 92% 30.14 in 6.2 mi Calm Calm - N/A   Overcast
8:58 PM 26.1 °F - 23.4 °F 90% 30.13 in 6.2 mi Calm Calm - N/A   Mostly Cloudy
9:58 PM 25.9 °F - 23.7 °F 92% 30.12 in 6.2 mi NW 1.2 mph - N/A   Overcast
10:58 PM 26.2 °F - 24.3 °F 92% 30.12 in 6.2 mi Calm Calm - N/A   Overcast
11:58 PM 26.8 °F 21.4 °F 24.3 °F 90% 30.10 in 6.2 mi West 4.6 mph - N/A   Overcast